Location: Ambatotampy
(18.8181°S, 47.6186°E)
Time: 00:16:26
(UTC+00:00)

Cosmos 968 Rocket - Pass Details

Date: 21 January 2021
Orbit: 740 x 771 km, 74.0° (Epoch: 24 February)

Event Time Altitude Azimuth Distance (km) Brightness Sun altitude
Exits shadow 00:42:42 41° 358° (N) 1,098 4.0 -23.2°
Maximum altitude 00:44:33 78° 77° (ENE) 791 3.5 -22.9°
Drops below altitude 10° 00:49:50 10° 163° (SSE) 2,328 6.6 -21.8°
Sets 00:52:14 0° 164° (SSE) 3,261 7.5 -21.3°
